Location: Unspecified
(29.9680°N, 0.0000°E)
Time: 01:36:45
(UTC+00:00)

A-11 Canister half - Pass Details

Date: 19 June 2019
Orbit: 1526 x 1683 km, 47.3° (Epoch: 21 July)

Event Time Altitude Azimuth Distance (km) Brightness Sun altitude
Rises 10:04:50 0° 309° (NW) 4,677 11.3 63.3°
Reaches altitude 10° 10:08:12 10° 317° (NW) 3,693 10.9 64.0°
Maximum altitude 10:16:44 39° 24° (NNE) 2,171 10.5 65.8°
Drops below altitude 10° 10:25:22 10° 90° (E) 3,745 11.5 67.6°
Sets 10:28:47 0° 98° (E) 4,748 11.9 68.4°
